Theta_e
302 302 301 300 300 300 300 300 300 300 301 301 304 308 313 315 312 308 307 305 305 313 315 314 318 314 303 302 306 307 308 306 305 305 304 304 304 304 306 304 302 303 303 303 304 303 302 304 304 303 304 303 300 299 298 299 298 298 301 301 298 298 300 302 306 308 304 302 300 298 298 299 300 300 300 303 303 302 304 305 304 303 302 301 301 303 296
301 301 299 299 300 299 300 300 299 300 300 301 304 309 314 314 311 309 306 302 308 312 308 311 315 309 306 308 306 304 306 308 307 307 306 305 302 303 306 305 301 301 303 303 304 302 301 301 301 300 302 303 299 298 299 298 300 300 299 300 298 298 301 302 305 311 310 308 306 305 303 301 300 300 300 300 299 300 301 300 301 301 299 298 301 303 297
300 300 299 300 300 299 300 299 299 300 299 301 305 308 311 312 308 310 309 302 306 313 312 315 316 311 310 307 303 304 306 305 305 306 306 304 302 302 303 303 302 302 303 303 305 305 302 300 301 300 301 301 299 299 298 298 300 300 298 299 298 298 301 302 303 306 307 307 307 306 304 301 300 299 299 299 300 299 298 299 302 302 298 296 300 301 296
299 299 299 300 299 299 300 299 299 300 298 301 307 305 307 311 307 312 320 312 307 307 309 316 318 310 309 306 302 305 306 305 303 304 305 303 302 302 302 301 302 302 304 306 308 308 303 300 303 303 303 302 300 299 299 299 300 301 300 298 298 301 301 301 305 308 306 306 303 301 301 300 299 297 295 297 298 297 298 301 300 298 297 298 298 295 293
299 299 299 299 300 299 299 299 299 300 299 302 307 306 307 312 307 307 313 313 314 314 311 314 313 305 305 304 302 304 307 305 304 303 303 303 302 303 303 303 302 302 304 305 306 307 304 302 302 302 301 301 299 298 298 300 300 299 299 297 298 303 302 299 302 305 304 303 300 297 297 296 294 294 293 293 294 295 297 297 294 293 296 299 296 292 292
299 300 299 299 300 299 299 299 298 300 300 302 308 310 307 307 305 302 302 304 311 311 307 311 313 307 304 304 303 306 309 306 304 302 301 302 303 302 303 304 303 303 303 301 303 306 305 304 303 300 299 301 302 300 299 299 299 298 298 298 299 302 302 298 299 302 301 299 296 294 292 291 291 292 291 291 292 293 293 292 291 292 295 295 292 291 291
299 299 299 299 299 299 299 300 298 299 302 302 306 310 307 306 307 303 301 304 307 304 302 308 314 309 306 307 304 305 308 306 303 301 302 305 304 301 303 305 306 306 304 301 303 305 304 303 303 300 299 300 301 301 299 299 299 299 299 299 298 299 302 300 299 302 300 295 294 292 291 291 290 290 290 290 290 291 291 291 291 292 293 292 289 289 289
299 299 299 299 300 299 299 300 299 299 303 303 306 307 305 307 308 305 307 309 308 306 305 308 313 309 306 306 304 304 308 307 303 301 301 302 303 302 302 304 306 306 305 303 303 302 301 301 300 299 300 301 300 299 298 298 300 301 300 298 297 297 300 300 300 303 300 294 292 292 290 291 290 289 290 290 290 290 291 291 291 292 293 290 287 288 288
299 300 300 299 300 300 299 300 299 299 302 305 307 306 302 303 302 304 312 312 305 306 306 306 312 311 306 305 303 304 306 304 303 303 301 301 303 303 301 302 305 306 305 306 304 302 301 301 299 298 299 299 298 297 297 296 299 302 300 299 300 299 300 302 302 303 301 295 293 292 290 291 293 291 290 290 290 290 290 290 289 290 290 288 287 288 287
299 300 300 299 300 299 299 300 299 299 301 304 306 305 303 304 302 303 312 311 304 306 308 308 310 305 302 303 303 302 305 305 304 302 302 304 305 302 300 301 304 305 306 306 303 301 301 300 298 297 297 297 297 297 298 296 297 300 300 299 299 299 300 301 301 302 302 297 294 293 293 296 297 292 289 289 289 288 289 288 286 286 287 287 287 286 285
299 300 300 300 300 299 300 300 299 299 301 302 304 302 301 305 306 308 318 316 306 306 308 307 307 303 300 303 302 302 305 307 304 299 300 305 303 301 301 301 302 305 304 299 296 296 297 297 296 296 297 299 300 299 299 298 296 297 298 298 300 299 299 299 298 300 304 301 295 294 298 301 296 290 287 289 289 288 288 288 286 285 285 285 285 284 283
300 300 300 300 300 299 299 299 299 299 300 301 302 300 300 302 304 310 323 318 305 307 308 302 302 303 302 302 302 303 305 305 303 300 300 303 303 301 301 300 301 302 298 294 294 295 295 295 296 297 299 301 301 300 300 299 298 297 296 297 299 299 299 299 298 299 302 302 298 298 301 298 291 288 287 288 288 288 287 287 285 284 284 283 283 282 282
299 300 300 300 300 299 299 299 298 299 299 300 301 300 301 304 304 310 322 317 304 305 305 300 300 303 304 304 304 304 303 302 301 301 302 302 303 304 301 300 300 299 295 294 296 297 298 298 298 298 299 301 301 300 299 298 298 297 295 294 296 298 299 299 299 299 299 299 300 298 295 292 289 288 288 286 288 289 287 286 285 283 282 282 281 281 281
299 299 300 299 299 299 299 299 299 299 299 299 300 300 300 303 305 307 315 318 307 299 300 302 305 306 306 307 306 305 304 303 301 302 302 301 303 305 302 299 297 295 293 294 297 297 299 301 301 301 300 301 300 299 298 298 297 296 294 291 293 298 300 298 298 298 296 297 299 296 293 291 290 289 287 285 286 287 287 287 285 282 281 281 280 280 280
299 299 299 299 299 299 299 299 299 299 300 299 300 301 299 301 304 303 307 316 314 302 299 302 304 304 307 308 304 303 307 308 303 301 301 300 301 302 299 296 295 293 292 294 298 298 298 300 303 303 302 300 300 298 298 298 296 294 293 291 291 293 297 298 298 297 296 297 298 297 297 295 290 286 285 284 285 285 285 287 286 282 280 280 279 279 279
298 299 299 298 299 299 298 300 300 299 301 300 299 301 300 300 304 303 303 310 314 306 299 294 291 294 302 305 302 299 302 304 303 303 306 306 304 301 296 293 293 293 294 297 298 299 300 301 301 302 301 299 298 298 298 298 298 296 293 293 293 292 293 296 298 296 296 297 296 297 299 295 287 284 284 284 284 284 284 286 286 282 280 279 279 278 278
298 298 299 298 299 299 298 299 299 298 300 300 299 301 300 300 302 303 304 309 312 303 293 288 288 291 298 304 303 300 299 300 300 302 306 306 303 302 299 295 293 294 296 299 301 303 304 304 302 304 303 298 297 299 298 297 298 297 294 294 296 295 294 294 295 295 294 295 294 294 294 290 285 283 284 284 284 284 285 288 287 281 279 279 278 277 277
298 298 298 298 298 299 298 299 299 298 299 300 300 301 300 299 301 301 304 310 311 300 289 287 291 293 295 298 299 297 298 300 301 302 305 305 301 299 300 298 297 296 294 297 302 304 304 302 300 302 301 297 297 299 297 296 296 294 293 293 294 294 293 292 292 293 294 294 293 292 290 287 284 283 283 283 284 285 287 287 284 279 279 279 277 277 277
298 298 298 298 298 298 299 299 299 299 299 300 301 300 299 299 301 299 301 306 307 300 291 287 289 291 290 290 293 295 295 297 299 301 306 307 300 296 296 297 297 297 297 299 302 301 301 301 299 299 301 299 296 296 294 293 293 292 291 292 292 291 291 291 291 292 291 291 292 292 290 286 282 283 283 283 284 286 285 283 280 279 279 278 277 277 276
298 298 298 298 298 298 298 298 299 300 299 298 299 299 297 298 299 299 300 301 298 294 290 286 287 288 287 288 292 294 295 297 297 298 301 302 298 298 302 301 298 299 300 301 302 299 299 301 299 298 300 298 294 295 294 291 290 290 290 291 289 288 290 292 291 289 289 291 292 292 291 286 283 283 283 282 282 283 281 279 279 279 278 277 276 276 275
298 298 297 298 298 298 298 299 299 299 299 298 298 298 297 296 298 298 297 297 296 295 292 288 286 286 286 287 287 289 291 293 293 294 296 297 295 297 301 299 296 298 298 297 299 299 297 298 299 297 297 295 294 295 295 293 291 289 288 289 288 287 288 291 290 289 290 292 291 289 287 284 282 282 281 280 279 279 278 278 277 277 277 276 275 274 273
298 298 298 298 298 298 298 298 298 299 298 298 298 298 297 296 295 297 297 296 294 293 291 287 286 286 286 286 286 286 286 287 287 288 290 295 296 296 297 297 296 295 294 294 297 298 297 297 298 298 296 294 293 292 292 294 294 290 288 289 289 287 286 286 288 288 288 289 288 287 285 283 282 280 279 278 278 278 278 277 276 276 276 275 273 273 272
297 297 298 297 297 298 297 297 298 298 297 298 298 297 297 296 295 296 297 295 289 288 288 287 287 289 287 286 287 286 285 285 287 286 286 292 298 296 294 295 294 292 293 294 294 295 297 297 296 297 295 293 293 293 292 293 292 289 288 289 287 285 284 285 287 286 285 285 285 285 283 283 281 280 278 278 278 277 276 276 276 275 274 273 273 272 271
297 297 297 297 297 298 297 297 298 298 297 297 297 297 297 297 297 297 297 295 293 295 293 289 290 292 290 288 287 287 286 286 286 285 284 287 295 297 294 292 291 293 295 293 289 291 295 294 294 296 295 292 293 294 293 292 290 288 289 288 286 284 284 285 285 284 284 285 285 283 282 282 281 279 278 277 277 277 276 275 275 274 273 273 272 272 271
297 297 297 297 297 297 297 297 297 297 297 297 297 298 297 297 297 298 298 298 300 302 300 295 292 291 289 288 288 287 288 287 286 286 286 285 289 294 293 290 289 292 293 290 289 293 296 293 294 297 294 291 292 292 290 290 289 287 288 288 286 285 285 285 284 283 284 285 284 282 281 281 281 279 277 276 276 276 275 275 274 273 273 272 271 271 270
297 297 297 297 297 298 298 297 297 297 297 297 297 298 297 296 297 298 299 298 298 301 301 297 293 291 289 289 289 288 289 289 288 288 288 287 287 289 289 288 288 289 289 288 290 295 296 292 293 295 293 290 291 290 288 287 287 287 287 285 284 284 285 284 283 282 282 283 282 281 280 281 281 279 276 276 276 275 274 274 273 272 272 271 270 270 269
297 297 297 297 298 299 298 297 297 297 297 297 297 297 297 297 297 298 299 300 300 303 304 298 294 292 290 289 290 290 290 290 290 289 289 289 289 288 287 287 288 290 293 293 292 294 296 294 291 291 290 288 288 288 286 285 285 286 285 284 283 284 284 283 282 282 282 282 281 280 279 280 280 278 276 275 275 274 273 272 271 271 271 270 269 269 269
296 297 297 298 299 299 298 297 297 297 297 298 298 298 298 297 297 298 299 299 299 301 302 298 294 293 292 291 291 291 290 290 290 291 290 290 290 290 289 288 289 293 297 297 294 294 295 293 290 289 290 290 289 287 285 285 287 288 285 283 282 283 282 282 282 282 282 282 280 278 278 278 277 276 275 274 273 272 272 271 270 270 270 269 268 268 267
297 297 298 299 299 299 298 298 297 296 297 298 298 298 298 297 297 298 298 298 297 297 297 297 295 293 294 293 291 290 291 291 291 291 291 291 291 291 290 290 291 292 293 294 294 293 292 291 290 290 288 289 289 287 285 288 291 289 285 283 282 282 282 282 282 281 281 280 278 276 276 276 275 275 275 273 272 271 271 270 270 269 268 268 268 267 267
297 297 298 299 299 299 299 299 298 297 298 297 298 303 305 301 297 297 298 298 298 298 299 301 298 293 291 291 291 291 291 291 291 292 291 292 291 291 291 291 289 289 292 293 293 292 291 290 291 290 288 288 290 289 287 289 290 287 283 282 282 282 282 282 281 280 280 278 276 275 275 275 275 275 274 273 271 270 270 269 269 268 267 267 267 266 266
297 297 298 299 298 298 299 299 299 299 299 298 300 306 309 303 298 297 298 298 297 297 299 299 296 293 292 292 291 291 291 291 292 292 291 291 291 291 291 292 290 290 293 294 292 291 291 290 289 290 289 289 291 290 287 289 291 288 284 282 281 281 281 281 280 279 278 276 275 275 275 274 275 275 274 272 271 270 269 269 268 267 267 266 266 266 266
298 297 298 298 298 297 297 297 298 299 299 298 298 300 300 298 297 296 297 298 297 299 303 302 297 296 298 296 291 290 291 291 291 291 291 291 292 291 291 291 291 290 292 293 292 291 290 289 289 289 288 287 289 289 288 290 291 288 283 281 281 281 281 280 279 277 276 275 274 275 274 274 274 274 272 271 270 269 269 268 267 266 266 266 265 265 265
298 297 298 298 298 297 297 297 297 297 297 296 296 296 296 296 297 297 297 298 296 296 302 305 301 298 297 295 291 291 292 292 292 292 292 291 290 292 293 291 291 291 291 292 291 290 289 290 291 289 286 285 286 288 290 289 287 284 282 281 280 280 280 279 278 277 275 274 274 274 274 273 273 272 271 270 269 269 268 267 267 266 265 265 264 264 264
298 297 297 298 298 298 297 297 297 297 296 296 295 295 295 296 297 297 298 298 296 296 298 300 302 301 298 297 296 293 291 293 295 295 294 292 290 291 294 294 293 293 291 290 290 290 289 290 290 290 288 286 285 288 291 288 284 282 281 280 280 280 280 279 278 276 275 274 274 273 273 273 272 271 270 269 269 268 267 267 266 265 264 264 264 264 263
298 298 297 297 298 298 298 298 298 298 297 296 295 295 295 295 295 297 297 297 299 302 299 295 297 301 300 300 301 296 291 292 295 293 292 292 291 290 293 296 296 293 290 289 290 290 289 288 289 290 288 286 288 292 292 288 283 281 280 280 280 280 279 278 277 276 274 273 273 273 272 272 271 270 269 269 268 268 267 266 265 265 264 264 264 263 263
298 298 298 298 298 298 298 298 298 298 298 297 296 296 296 295 295 295 295 295 297 301 301 297 296 296 295 296 298 295 291 292 294 292 292 293 291 290 294 298 295 291 289 291 291 290 287 286 288 289 289 289 293 293 288 285 283 281 280 280 279 279 278 277 275 274 273 272 272 272 272 271 270 269 268 268 268 267 266 265 265 264 263 263 263 263 262
298 298 298 298 298 299 298 297 296 297 298 297 297 297 297 297 297 296 295 294 293 293 295 297 296 292 290 292 293 292 292 292 293 293 295 295 292 292 296 298 295 291 291 292 291 288 287 287 289 291 292 291 290 286 282 282 282 280 279 279 279 277 276 275 273 273 273 272 272 273 272 271 270 269 268 267 267 266 266 265 264 264 263 263 263 262 262
298 298 298 299 301 303 302 298 296 298 298 296 298 299 296 297 301 301 297 296 294 291 291 293 294 291 291 293 293 291 291 292 292 293 293 293 292 293 295 296 293 291 292 291 287 285 287 288 288 289 291 288 284 282 281 280 279 278 279 279 277 276 274 273 272 273 273 272 272 272 271 270 269 268 267 267 266 266 265 265 264 264 263 263 262 262 261
299 299 299 299 301 302 301 297 296 297 297 296 299 300 298 298 302 302 299 298 297 294 292 293 292 290 292 295 295 292 290 291 293 295 293 292 292 293 294 294 292 291 293 292 287 285 289 290 287 288 291 288 282 281 281 280 278 278 278 277 276 275 274 273 272 272 272 272 271 270 269 268 268 267 266 266 266 266 265 264 264 263 262 262 261 261 261
299 299 300 300 299 298 297 297 297 297 298 298 299 300 300 299 297 296 298 301 299 293 291 291 290 288 289 291 292 292 290 289 290 292 292 292 291 291 292 293 292 291 294 293 288 287 290 291 288 290 294 291 283 280 280 279 278 278 277 275 275 274 273 272 272 272 271 271 269 268 267 267 266 266 266 265 265 265 264 263 263 262 261 261 261 261 260
299 299 299 300 299 297 297 298 297 297 299 301 301 299 298 298 295 294 298 301 298 292 290 290 291 292 291 290 290 291 290 288 287 288 291 292 291 290 291 292 290 291 293 292 288 288 290 291 291 294 293 288 282 280 280 279 278 277 275 274 273 273 272 272 271 271 271 270 268 267 266 266 265 266 265 265 264 263 263 262 262 261 261 261 260 260 260
299 299 299 299 299 298 299 299 298 297 299 301 301 298 296 296 297 297 296 295 293 291 290 290 290 291 290 288 287 288 288 287 287 289 291 292 291 291 292 292 291 292 292 289 287 288 291 292 297 298 291 283 280 280 279 279 278 276 274 273 273 272 272 271 271 270 270 269 267 266 266 266 265 265 265 264 263 263 262 261 261 261 260 260 260 259 259
299 299 299 299 298 298 301 302 298 297 300 301 299 297 296 297 297 296 294 293 291 290 290 289 288 289 288 286 286 287 287 287 288 290 290 289 290 291 293 293 292 290 288 287 288 291 293 295 299 297 288 281 280 280 279 278 277 275 273 272 272 272 271 271 270 269 268 267 267 266 266 266 265 265 264 263 263 262 261 261 261 260 260 260 259 259 259
298 298 299 301 300 299 302 302 297 296 299 298 296 296 296 296 297 298 297 295 292 290 289 288 287 289 290 288 286 288 288 288 288 289 288 288 289 291 293 294 292 288 286 289 291 292 292 294 294 290 284 280 280 280 278 277 276 274 273 272 271 271 271 271 270 269 268 267 266 266 266 266 265 264 264 263 262 261 261 261 260 260 260 259 259 259 258
301 302 304 306 303 299 300 302 299 297 296 297 300 302 299 295 298 300 297 291 289 288 288 286 286 288 289 287 285 287 289 288 288 288 287 287 289 291 289 289 289 287 288 291 292 290 289 292 292 287 283 281 280 279 278 276 275 275 274 272 271 271 271 270 270 269 267 267 266 266 266 265 264 263 263 263 262 261 261 260 260 260 259 259 259 259 258
301 302 306 308 304 299 299 301 300 298 296 297 302 305 302 298 299 296 290 286 287 289 288 286 285 286 289 288 286 287 289 289 288 287 286 287 289 290 286 285 287 289 289 290 292 292 291 293 292 288 284 282 280 279 277 275 274 274 273 272 271 271 270 270 270 268 267 266 266 266 265 265 264 263 262 262 262 261 261 260 260 259 259 259 258 258 258
301 300 303 307 305 300 299 299 297 296 296 296 297 298 294 292 292 289 283 282 284 285 284 283 283 284 285 286 286 287 289 289 287 286 286 287 289 289 286 286 289 291 288 288 293 297 296 293 289 286 283 281 280 279 277 274 273 273 272 271 271 270 270 269 269 268 267 266 266 266 265 264 263 262 262 262 262 262 261 260 260 259 259 258 258 258 258
303 300 302 305 304 301 300 298 293 291 291 291 291 289 286 286 290 290 283 279 281 283 284 285 286 286 286 285 286 287 289 289 288 287 286 286 287 288 288 289 291 291 289 289 294 298 296 291 287 284 282 280 280 279 276 274 272 271 271 271 271 270 269 269 268 268 267 266 265 265 264 263 263 262 262 261 262 261 261 260 260 259 258 258 258 258 258
298 299 300 300 299 299 296 292 293 295 294 290 288 288 287 289 293 291 283 279 280 283 282 282 284 287 288 287 286 288 288 288 287 287 286 287 289 290 289 289 291 292 292 293 296 296 292 287 284 283 282 280 278 276 274 273 273 272 271 271 270 269 269 269 268 267 267 266 265 265 264 263 262 262 261 261 261 261 261 261 260 259 258 258 258 258 258
294 298 299 297 297 297 293 291 296 301 298 293 291 291 290 293 294 289 282 280 281 281 281 282 285 287 287 287 289 290 289 287 287 287 288 291 292 289 287 289 294 296 296 295 293 291 288 285 283 282 282 280 276 274 272 273 273 272 271 271 270 269 269 268 267 267 266 265 265 264 263 262 262 261 261 261 261 261 261 261 260 259 259 259 258 258 258
296 297 295 293 294 297 296 296 301 302 299 299 300 296 292 294 295 287 281 280 282 284 286 288 288 287 288 290 290 289 287 285 286 287 287 288 288 288 288 292 297 299 297 293 289 287 286 283 280 281 281 279 275 273 273 273 273 272 271 270 270 269 268 268 267 266 266 265 264 263 263 262 262 261 261 261 261 261 261 262 261 260 259 259 259 258 258
302 299 294 289 289 293 294 295 299 299 297 297 296 291 288 291 290 282 279 281 285 288 289 289 287 289 291 291 289 287 286 286 287 289 288 287 287 290 295 298 297 295 293 290 286 285 283 279 275 276 278 276 274 273 273 273 272 271 271 270 269 268 268 267 267 266 266 265 264 263 262 262 262 261 261 261 261 261 261 261 260 260 260 259 259 258 258
Wind_Speed
15 17 18 18 18 18 18 19 19 18 19 16 11 7 3 3 1 2 13 17 5 5 5 4 3 3 1 0 0 0 1 1 1 2 2 1 1 2 1 1 0 1 1 1 1 0 1 1 0 0 1 0 1 1 2 2 1 1 1 2 1 1 2 1 4 4 4 5 3 3 2 2 3 2 3 2 2 2 5 4 3 1 2 0 1 1 2
15 16 16 16 16 17 17 17 17 16 18 17 12 4 3 1 2 2 12 15 3 5 3 1 2 2 2 2 2 1 1 1 0 1 2 1 1 1 1 1 0 1 1 1 1 2 0 1 1 0 1 0 1 2 3 3 0 1 1 1 1 2 0 2 3 4 5 6 5 5 4 3 2 2 3 3 4 4 2 1 2 1 2 2 2 3 2
15 14 15 15 15 16 15 15 16 14 15 16 10 3 3 2 0 3 9 15 9 4 3 4 3 0 1 3 2 2 1 0 1 1 1 0 2 1 1 1 0 1 1 1 2 2 1 1 1 2 0 1 1 2 3 3 1 1 3 2 1 1 1 2 2 0 1 2 3 3 3 3 2 3 6 5 5 5 1 1 3 1 2 2 2 3 2
14 14 15 15 15 15 14 14 14 13 14 13 7 3 2 2 2 3 6 9 8 3 1 4 4 2 2 2 2 2 2 2 0 1 1 0 1 0 2 1 1 2 2 2 3 2 1 1 1 2 2 3 2 2 3 2 2 3 4 1 2 1 0 1 4 5 4 4 4 4 1 2 2 4 8 7 5 5 4 4 2 1 1 3 2 2 2
14 15 15 15 14 14 12 12 13 13 13 11 6 4 4 2 1 1 3 4 4 4 4 4 4 2 3 2 1 2 2 3 1 0 1 0 1 0 1 2 2 1 2 2 2 3 3 2 1 1 1 3 3 2 2 2 3 4 2 0 3 3 2 1 2 4 5 5 3 2 4 4 4 4 7 8 7 8 9 5 1 1 3 3 4 3 5
15 15 15 15 14 13 12 11 12 11 11 10 5 3 3 2 1 1 0 1 1 3 4 3 4 3 2 2 1 2 3 3 1 1 1 1 1 1 1 3 2 1 1 1 1 3 4 3 1 0 1 3 4 3 1 2 3 3 3 1 3 4 1 1 1 3 6 4 1 7 9 7 6 6 6 7 8 9 8 3 0 3 3 3 4 6 5
15 14 14 14 13 12 11 10 10 10 9 8 7 4 2 2 2 1 2 1 2 0 2 3 5 5 3 2 1 1 1 2 2 1 2 3 2 1 1 4 4 3 2 1 0 2 2 3 3 0 1 2 2 3 2 2 3 3 4 3 2 3 1 2 1 2 6 6 4 8 10 8 7 7 6 5 6 6 5 1 1 1 1 1 4 6 3
14 14 14 13 13 12 11 10 9 9 7 6 6 5 2 2 1 1 3 3 1 1 2 3 4 3 3 2 1 1 1 2 3 1 2 2 3 2 1 5 5 3 1 3 1 2 2 2 4 2 1 2 1 1 1 2 4 5 3 3 2 2 2 2 3 3 5 5 6 7 8 9 9 7 6 6 7 6 5 3 3 3 2 3 5 4 3
14 14 13 13 13 12 11 10 9 8 7 5 5 4 3 2 1 2 4 2 3 2 2 2 4 2 3 1 1 1 0 1 2 1 1 2 1 1 2 5 4 3 2 4 0 3 4 3 5 4 2 2 1 0 1 1 4 5 3 2 3 3 2 3 5 4 3 1 5 5 6 8 9 8 8 7 8 7 4 2 3 2 2 4 5 4 4
15 15 14 14 13 12 12 11 10 9 7 5 4 3 2 2 1 2 5 2 2 2 2 3 3 1 1 1 1 1 1 2 1 0 1 1 2 3 2 2 1 2 3 1 2 3 5 5 4 4 2 1 1 1 1 1 1 2 1 2 2 2 2 2 3 2 3 2 2 4 3 3 3 5 6 3 4 6 5 1 3 3 1 2 4 4 5
16 15 15 14 14 13 12 12 11 10 9 7 5 3 3 3 1 2 5 4 3 2 2 3 3 1 1 2 2 1 2 4 2 1 0 2 1 1 2 2 1 1 1 1 1 2 4 4 2 3 3 4 4 4 4 5 4 1 1 1 1 2 3 0 1 1 3 5 2 2 3 2 4 0 5 3 3 8 9 2 3 4 3 1 3 5 7
16 16 16 15 15 14 13 13 12 11 11 9 7 6 5 3 2 3 5 4 2 4 3 2 1 0 1 3 1 1 2 3 2 1 1 2 1 1 2 2 1 1 1 1 2 1 1 1 3 3 5 5 5 6 7 7 6 4 2 3 1 3 3 0 1 2 3 3 5 4 1 3 5 3 7 6 1 5 8 0 4 4 3 3 5 7 7
16 17 17 16 16 15 14 14 12 11 11 9 8 8 7 4 3 3 5 5 1 3 2 1 2 1 3 4 2 2 4 3 2 0 1 1 2 2 1 1 1 1 3 4 4 3 2 3 3 3 4 4 5 6 8 7 7 7 6 4 2 2 2 1 1 2 1 3 4 1 2 1 1 1 7 8 3 6 8 2 2 2 4 5 7 8 8
16 17 17 17 17 16 14 14 12 11 10 9 8 9 8 6 4 2 3 5 1 2 1 1 4 5 4 4 3 3 3 3 2 1 1 1 1 3 2 1 2 2 4 4 4 3 2 2 3 3 3 4 3 3 4 5 5 7 8 7 3 3 3 2 2 1 2 1 2 2 1 2 3 3 6 6 3 5 7 4 2 2 4 6 7 8 10
17 17 17 17 16 15 14 13 12 11 10 9 8 8 8 8 5 2 3 5 3 0 1 1 3 4 4 4 3 3 3 4 3 1 1 1 1 3 2 1 2 3 4 3 2 2 1 1 2 3 3 2 1 1 1 2 2 4 6 6 6 5 4 3 2 1 2 2 2 3 2 2 1 2 6 7 5 6 5 4 2 3 6 6 7 9 11
17 17 17 16 16 15 13 13 12 11 11 10 8 7 9 10 7 4 4 5 4 1 2 1 2 2 2 4 3 3 3 3 3 3 4 3 2 2 1 1 1 2 2 2 2 3 3 1 1 1 1 1 1 1 1 1 2 3 5 8 9 8 5 4 4 3 3 3 1 1 3 3 1 4 8 8 7 7 3 1 2 3 7 7 7 9 11
16 16 16 16 15 15 14 12 11 11 10 9 8 9 11 11 8 5 5 5 4 3 1 2 2 2 1 2 3 3 2 2 2 2 3 3 2 3 2 1 0 2 2 2 2 3 4 2 1 2 1 2 1 1 1 2 2 6 7 8 9 7 5 5 5 3 1 1 0 2 2 2 1 6 8 8 8 4 4 2 4 4 7 8 8 9 10
16 15 15 15 15 15 14 13 12 11 10 8 8 10 12 13 10 5 4 5 5 3 2 4 2 1 2 1 2 2 2 2 2 1 2 3 2 2 3 2 2 1 1 2 3 3 3 2 2 3 0 3 2 3 1 2 2 4 5 4 4 4 3 3 4 3 2 1 1 3 2 1 4 8 8 8 7 3 2 3 5 6 9 9 8 9 9
15 15 16 15 15 15 14 13 13 12 11 10 8 9 13 14 10 6 6 6 4 3 3 5 2 2 3 2 3 2 1 1 2 2 2 3 2 2 2 1 1 1 1 3 3 2 3 2 1 3 2 3 2 3 2 2 1 2 3 3 3 3 3 3 2 2 2 0 1 4 3 1 4 9 7 5 5 2 2 4 6 8 9 7 7 8 8
15 15 16 15 15 14 14 13 13 11 12 11 9 11 15 15 12 8 6 6 5 4 3 5 4 4 5 3 2 2 2 2 2 2 2 2 4 3 4 3 2 3 3 4 3 1 2 2 2 1 2 2 1 3 2 2 2 1 1 2 1 1 1 3 2 1 1 2 2 3 3 2 5 7 5 3 3 2 4 6 6 7 7 7 7 7 7
14 14 15 15 15 14 13 13 12 11 12 11 10 12 17 18 17 13 9 11 10 4 1 3 5 6 6 6 5 3 2 2 2 1 0 3 4 3 4 2 2 2 2 2 1 1 1 1 1 2 1 1 2 2 2 2 2 2 2 3 1 1 2 1 3 0 2 1 1 1 1 2 5 5 2 2 2 2 4 5 5 4 5 6 6 5 7
14 13 14 15 14 14 13 12 11 10 11 11 11 12 15 17 18 15 13 19 19 10 6 6 8 9 10 8 7 6 4 3 1 0 0 2 3 3 3 0 2 1 1 1 2 1 2 2 2 2 2 1 2 2 2 3 1 3 2 3 2 0 1 2 3 1 1 3 4 1 1 2 4 3 3 1 2 1 1 3 4 5 5 5 5 6 7
12 13 13 14 14 14 12 11 10 10 11 11 11 12 15 16 15 13 16 23 21 12 8 7 6 6 7 7 7 7 6 3 1 1 1 1 3 2 2 2 2 1 1 2 2 1 1 2 2 3 2 1 2 3 2 2 1 1 2 2 1 1 2 0 2 3 3 3 2 2 2 3 2 3 3 2 1 0 2 3 4 5 5 5 6 7 8
11 12 12 13 14 14 12 11 10 9 9 10 10 11 13 13 11 9 11 13 10 5 4 5 3 2 4 5 6 8 7 4 3 1 2 2 1 2 2 2 1 2 2 2 1 1 2 1 1 3 2 1 2 3 2 2 1 2 1 2 2 2 3 3 2 3 3 1 0 2 5 7 3 3 2 4 3 3 4 5 4 5 6 7 9 9 11
10 11 11 12 13 13 12 10 9 8 9 9 10 9 9 8 7 6 7 7 5 4 4 4 4 4 5 5 6 7 7 8 8 5 5 4 2 2 1 3 2 1 3 4 3 3 3 2 2 3 2 1 2 2 1 1 1 2 2 1 3 2 2 2 2 2 3 4 3 5 8 8 2 4 4 6 4 4 5 6 6 8 9 9 10 11 13
10 10 11 12 13 13 12 9 8 9 9 9 10 9 9 9 8 7 9 10 8 6 5 2 3 4 5 5 6 7 8 10 9 7 6 5 4 3 2 3 3 2 3 3 3 4 4 3 3 3 2 1 2 2 1 1 1 2 2 1 2 2 2 1 2 3 4 5 5 7 8 7 1 4 6 6 4 4 5 6 7 8 9 9 10 12 13
10 11 11 12 12 13 11 8 8 9 11 13 13 13 14 14 11 7 5 5 4 3 3 2 2 3 4 7 8 9 9 9 8 8 6 5 4 5 5 4 2 1 1 3 3 3 4 4 3 2 1 1 2 3 2 1 2 3 1 1 1 2 1 1 2 3 3 4 4 5 5 5 3 6 7 5 5 5 5 5 7 8 9 10 10 11 13
10 11 12 12 12 12 10 7 7 9 12 15 17 20 22 21 18 13 9 5 5 5 4 3 2 1 3 5 9 10 9 9 9 9 9 6 5 5 6 5 3 2 3 4 3 3 4 3 2 1 1 1 2 2 1 2 3 2 1 1 0 0 1 1 1 3 4 4 3 3 3 5 5 7 5 4 6 6 5 6 8 8 10 12 12 11 12
10 11 12 13 14 13 10 7 6 7 8 9 11 15 18 19 19 17 14 12 14 13 6 2 2 2 1 3 7 8 8 8 9 9 9 10 9 8 8 8 6 3 3 4 4 4 3 2 2 1 1 1 3 2 1 2 2 0 2 2 1 1 2 2 2 4 5 4 3 2 3 4 6 7 3 5 7 7 5 7 9 10 12 15 14 12 12
9 10 11 14 16 17 15 11 6 4 3 2 2 5 8 10 12 13 11 9 10 9 6 3 3 1 1 2 5 8 8 7 7 8 10 11 11 10 9 8 7 5 4 3 3 3 2 1 2 2 3 1 3 3 1 2 1 2 3 3 2 3 2 2 3 2 2 2 2 4 4 4 6 7 3 6 10 9 8 9 10 11 14 15 14 14 14
7 9 11 14 18 20 20 18 14 9 6 3 2 2 3 3 6 8 8 7 6 7 6 4 2 1 1 1 3 8 8 5 4 6 7 7 8 9 8 7 6 5 4 2 2 2 2 2 3 2 3 4 4 3 2 3 1 3 3 4 3 3 3 2 2 1 0 1 3 5 5 2 4 6 3 6 10 11 10 10 11 13 15 15 14 15 16
6 8 10 13 17 19 21 22 21 19 18 16 12 7 4 1 3 5 5 5 5 6 6 4 2 1 1 1 2 7 8 4 3 4 4 4 5 5 6 6 5 5 5 4 2 2 2 1 2 1 3 3 4 3 3 4 2 4 4 3 3 3 2 2 1 1 2 4 5 5 4 3 3 3 2 4 8 11 12 12 12 14 15 14 14 15 16
5 6 7 10 12 15 18 20 20 22 24 25 22 17 12 6 3 3 4 5 6 5 4 4 3 1 1 2 2 7 8 4 2 3 3 3 3 3 3 4 3 4 6 4 2 1 1 2 2 2 3 2 3 3 2 2 3 4 3 2 3 3 2 2 1 2 2 5 5 3 5 6 3 2 3 6 10 13 13 12 12 14 14 13 13 14 15
6 6 7 8 9 12 13 14 15 18 21 22 21 22 23 19 11 6 3 4 6 7 6 4 3 1 2 1 1 5 6 3 1 2 2 3 4 2 2 3 3 3 4 3 2 1 2 1 2 1 2 2 3 2 1 3 4 3 2 2 3 2 2 3 1 1 2 4 5 6 7 5 3 3 6 9 12 13 12 11 12 12 10 9 10 13 14
6 7 7 8 8 8 8 8 9 11 13 13 13 17 24 27 24 19 11 6 4 4 3 4 3 2 3 3 2 4 5 3 1 1 1 2 4 3 2 2 3 2 2 2 2 2 2 1 2 1 2 2 2 0 3 4 4 3 2 3 3 2 2 3 1 1 3 5 7 8 6 3 4 4 6 8 11 11 10 10 12 11 7 7 10 13 14
7 8 8 8 7 6 4 5 6 5 6 7 8 10 14 17 19 22 23 20 14 7 2 2 3 2 1 1 2 5 6 3 1 2 2 1 3 3 3 3 3 1 1 3 3 1 1 0 1 1 2 0 1 3 4 4 5 3 2 3 3 2 1 1 1 2 4 5 7 7 3 4 4 3 4 6 9 10 8 8 9 8 6 6 10 13 14
8 8 8 6 5 4 3 4 5 4 5 6 5 5 5 4 5 10 15 18 16 11 6 4 2 0 0 1 2 5 6 3 2 4 3 1 1 2 2 3 1 1 2 3 1 1 1 2 2 1 1 2 3 4 3 3 4 2 2 3 2 2 2 1 1 2 4 5 5 4 1 2 2 3 4 5 7 7 6 7 8 8 8 8 11 13 15
8 6 4 3 3 3 2 3 3 4 4 3 2 2 3 3 3 4 5 6 7 7 6 5 1 1 1 1 2 4 4 2 2 3 2 1 1 2 2 2 1 1 2 2 2 1 1 3 2 1 3 4 2 3 3 3 3 1 2 2 2 3 4 2 2 3 4 5 3 2 2 2 3 4 4 4 5 6 7 8 9 10 10 11 13 15 17
5 3 3 3 3 2 1 2 3 4 2 1 2 2 3 4 4 3 3 3 3 3 4 3 1 0 2 2 3 4 3 2 3 3 2 1 1 1 1 1 1 2 3 2 2 1 2 3 2 1 3 4 2 2 3 3 2 1 2 2 3 4 4 2 2 1 3 3 0 1 2 2 4 5 4 4 6 7 8 9 10 11 12 13 14 15 16
3 3 2 3 2 3 3 2 1 1 1 2 3 3 2 3 3 1 1 3 3 2 2 2 0 1 2 3 1 2 3 3 1 1 1 1 1 0 2 1 0 2 2 2 2 1 1 1 1 2 2 4 3 3 3 2 0 1 2 4 5 5 4 2 2 2 2 2 4 5 4 4 4 5 4 5 6 7 8 9 10 12 14 14 14 15 16
2 3 3 3 4 4 5 4 2 1 2 2 3 3 2 2 2 1 2 3 3 3 1 2 3 3 3 2 1 1 2 2 1 2 1 1 1 1 2 1 0 2 1 3 2 2 3 1 1 2 4 4 3 3 3 1 1 1 4 6 5 4 3 2 2 1 2 4 5 4 5 7 7 5 5 6 7 7 8 10 11 13 15 14 14 15 17
5 6 6 6 6 5 4 5 5 4 2 2 2 2 1 1 2 2 2 1 0 2 1 2 2 3 4 1 1 2 1 2 2 2 2 1 1 1 1 1 2 2 1 3 0 3 3 1 2 4 4 3 3 3 2 1 1 2 6 6 5 4 1 2 1 2 4 4 4 4 6 8 8 6 5 7 8 8 8 9 11 13 15 15 15 16 18
7 6 5 4 3 3 3 4 4 4 3 2 2 2 2 3 2 2 2 2 0 1 1 2 2 3 3 1 1 2 2 1 1 1 1 1 1 1 2 2 2 1 1 0 3 3 0 2 3 4 4 3 3 3 2 1 1 3 6 7 5 3 1 1 2 5 5 3 3 4 7 9 9 7 6 7 9 9 10 11 11 12 14 15 16 17 17
3 2 2 2 2 3 3 2 2 3 3 2 1 1 2 3 2 1 2 2 1 1 1 1 2 2 2 1 1 1 1 1 1 1 0 1 1 2 2 0 1 1 1 2 1 1 3 4 4 4 3 3 3 3 2 1 1 2 6 6 4 2 1 1 3 6 4 1 2 5 8 11 10 8 8 8 8 9 11 12 12 12 14 15 16 17 17
0 2 3 3 3 3 2 1 2 2 2 0 1 3 2 1 2 3 3 2 1 1 2 1 3 1 3 3 0 1 1 1 1 1 0 1 2 1 1 2 1 1 1 1 1 2 3 4 4 3 3 4 4 3 1 2 3 2 5 5 3 1 1 1 3 5 3 1 2 5 9 10 9 9 9 10 9 9 10 11 11 12 13 14 15 17 17
2 1 3 3 2 2 1 1 1 1 1 2 3 4 4 3 4 4 3 1 1 0 2 0 3 2 2 3 1 0 0 1 1 0 0 2 1 1 2 1 1 3 2 1 2 3 4 5 4 3 4 4 4 2 1 2 3 3 4 4 3 3 2 1 3 4 3 1 2 6 8 9 8 8 9 10 10 10 10 11 11 11 11 12 14 16 17
2 2 3 3 1 2 1 1 1 1 2 2 3 4 4 3 3 2 1 1 2 2 1 1 2 2 2 1 0 1 1 1 1 1 0 2 1 2 1 1 0 1 1 1 4 5 5 4 3 3 4 4 3 2 2 2 3 5 5 4 4 4 3 2 2 3 3 2 4 7 9 9 8 8 9 10 10 10 11 12 11 10 10 12 14 15 16
2 1 2 2 1 0 0 1 1 1 1 1 2 3 2 1 1 2 2 2 3 2 1 1 1 0 1 1 0 1 1 1 0 1 0 2 1 1 2 2 2 2 2 4 5 5 4 3 4 4 4 3 3 3 3 3 5 7 6 4 5 5 4 3 3 3 4 3 5 7 8 8 7 7 8 9 10 11 12 12 10 10 11 14 16 17 17
6 3 3 2 2 2 1 1 1 0 2 2 1 1 1 1 3 4 3 3 2 1 2 2 2 1 1 1 1 0 1 1 0 0 1 2 0 1 0 0 2 3 3 4 4 3 3 3 4 4 4 3 3 3 3 4 6 8 7 6 6 6 5 4 4 4 4 3 5 7 7 7 6 6 7 8 10 12 12 11 10 11 14 15 16 17 17
6 4 2 2 2 1 1 2 2 2 5 4 2 1 2 2 3 4 3 4 2 2 2 1 1 1 0 1 2 1 2 1 1 1 0 1 2 1 1 2 4 4 4 4 4 3 4 3 4 4 4 4 4 4 5 6 8 8 7 6 5 5 5 4 4 4 4 4 5 7 6 5 4 5 6 7 10 11 11 10 11 14 16 16 16 16 17
4 3 1 1 1 2 3 3 3 3 4 3 3 4 3 3 3 4 5 5 3 3 2 0 0 2 2 2 1 1 1 0 1 1 1 3 2 3 2 4 6 5 4 4 3 4 4 4 4 4 4 4 4 5 6 7 8 9 8 6 6 6 5 5 5 4 4 5 6 6 5 4 4 4 5 7 9 10 10 10 12 15 17 17 16 15 16
2 2 1 1 1 3 3 3 2 2 3 3 4 4 3 2 3 5 6 6 4 2 1 1 2 3 1 1 1 0 0 1 1 1 2 3 2 4 5 6 5 4 4 4 4 3 4 5 6 7 6 4 4 5 6 7 9 9 8 7 7 7 6 6 6 6 5 5 6 6 5 4 4 5 6 7 8 9 11 12 14 16 17 17 15 14 14
Wind_Direction
353 351 353 355 357 358 359 1 358 356 1 4 3 11 59 80 162 281 349 346 340 84 48 332 18 51 264 306 163 5 71 99 311 349 8 15 11 15 19 185 179 210 214 247 256 233 239 242 291 290 255 267 292 283 324 321 241 143 330 322 327 0 76 33 295 293 311 312 337 51 55 57 68 27 25 72 52 81 139 171 200 221 313 0 113 271 209
352 353 356 356 358 -0 -0 1 359 357 3 5 6 33 127 134 220 271 359 2 45 111 66 346 14 332 293 32 13 330 87 120 42 353 337 346 83 52 338 219 1 300 180 140 233 242 257 303 347 82 201 208 333 320 339 335 291 112 331 314 343 320 116 70 352 343 348 348 355 355 350 24 63 13 2 27 42 43 75 99 75 100 300 78 129 252 227
354 356 357 356 358 359 357 356 357 1 5 6 14 69 132 60 297 266 360 23 56 113 155 144 133 291 37 42 3 353 8 63 113 166 265 267 151 147 308 260 116 306 300 354 297 276 214 272 337 32 285 299 335 329 332 328 244 245 278 273 314 265 192 109 99 120 300 299 298 287 294 340 37 33 5 7 29 25 353 54 66 96 307 31 127 230 236
357 356 356 356 355 354 352 353 358 3 4 6 24 72 95 71 50 310 337 18 48 74 133 103 110 133 104 58 4 29 7 307 261 157 223 331 139 159 313 314 47 9 17 8 320 308 307 277 23 35 313 289 303 308 323 320 246 271 291 298 89 96 102 110 145 170 198 221 247 261 261 7 37 32 13 9 8 15 63 86 63 168 343 340 221 221 296
357 355 354 351 350 351 351 354 359 2 3 7 27 55 50 76 86 16 332 346 24 26 8 42 70 111 118 101 0 9 342 320 347 148 210 36 54 34 11 38 46 16 20 19 299 292 332 358 35 44 284 279 296 301 311 325 304 303 303 143 95 72 346 329 146 197 233 241 265 9 58 63 70 60 32 24 19 32 68 86 288 110 77 301 276 348 345
356 353 351 348 349 353 356 359 0 3 6 10 27 47 36 62 143 163 94 329 25 23 359 44 68 47 76 113 5 9 4 349 354 264 303 23 35 25 16 13 15 268 288 33 306 309 346 356 330 341 307 306 336 344 322 325 335 350 350 351 97 99 292 296 113 275 298 313 71 91 87 79 73 72 56 41 39 48 72 103 192 94 127 245 307 351 338
354 352 350 351 354 358 3 5 3 9 14 20 44 63 35 65 103 311 9 65 163 116 352 75 78 45 44 72 29 49 40 334 291 282 4 4 351 44 343 303 308 302 276 149 151 309 345 333 293 274 330 311 354 6 327 318 349 24 15 343 100 116 288 300 82 332 348 18 75 100 99 94 71 61 57 51 56 67 79 94 318 40 177 230 5 344 297
357 357 356 358 2 4 9 13 11 17 22 26 52 63 40 79 145 268 37 53 65 33 16 73 82 37 28 55 25 106 138 302 301 344 62 358 327 20 336 291 298 308 283 128 138 252 180 232 260 199 54 324 345 28 259 289 340 11 29 330 343 49 328 322 74 32 357 29 67 80 95 102 83 56 39 41 46 47 46 22 354 14 345 345 5 330 279
5 6 7 8 11 12 15 20 20 22 29 47 69 61 50 88 141 143 103 62 356 13 19 69 91 37 6 41 348 348 1 285 292 293 171 189 246 292 291 295 310 344 60 96 257 247 176 204 236 190 171 274 236 16 216 217 332 351 16 338 352 33 357 350 57 50 318 15 93 101 104 95 76 42 16 26 40 24 357 12 29 20 316 329 349 334 310
15 15 17 17 19 22 22 25 28 29 36 62 83 61 46 79 53 69 101 85 352 15 13 33 79 67 327 341 310 314 320 326 9 80 272 221 219 231 229 248 308 357 27 65 241 222 188 205 221 185 176 246 129 51 18 94 42 352 23 14 4 63 55 2 48 67 283 287 150 159 112 48 13 1 350 351 66 31 351 23 58 31 44 13 342 316 316
24 24 26 27 28 30 31 34 38 42 48 62 90 99 66 77 79 39 78 79 351 351 31 28 45 57 349 356 346 349 0 353 7 127 275 301 257 200 160 142 93 330 263 229 217 203 197 197 177 134 99 71 70 72 56 50 52 52 72 48 358 48 77 80 68 94 272 291 331 101 68 338 248 245 8 332 102 38 359 335 94 47 58 68 319 315 331
32 33 35 36 38 39 41 44 44 49 54 56 78 92 66 66 105 73 85 106 337 354 57 58 8 22 343 345 322 244 301 323 306 174 222 275 286 44 85 108 75 339 199 123 46 34 184 99 74 70 63 56 52 57 56 45 28 11 55 100 62 27 44 350 60 78 268 309 31 43 330 251 207 142 24 359 97 34 360 353 124 46 26 19 344 336 337
38 40 42 42 45 46 47 50 48 49 53 51 62 75 62 56 92 87 97 112 22 352 74 66 338 23 3 349 338 261 259 273 289 251 189 260 294 334 10 128 147 193 157 118 77 74 86 59 49 39 18 16 23 33 38 38 27 16 26 55 79 60 59 61 62 49 334 10 36 0 242 245 219 22 11 7 12 4 358 8 148 8 10 15 349 330 331
43 44 45 44 46 47 46 49 50 47 51 49 51 63 58 45 66 102 110 105 95 280 154 58 347 358 347 322 323 313 296 315 341 297 193 169 242 254 263 215 173 153 140 116 68 66 102 71 45 24 353 1 19 14 9 25 47 45 29 17 30 95 97 72 47 48 76 65 310 283 263 354 4 4 354 349 336 336 338 313 240 59 43 19 348 331 335
44 43 44 43 43 44 43 44 44 42 45 46 45 58 59 46 52 94 118 115 126 311 20 16 310 327 320 299 329 13 350 338 353 312 279 301 248 247 256 205 154 142 133 110 73 76 112 86 51 25 3 8 8 281 341 7 39 65 48 27 36 58 70 80 74 42 76 82 356 351 336 286 298 338 323 317 298 293 298 269 246 57 42 14 354 342 339
44 42 42 41 40 40 39 39 40 39 41 44 45 53 52 45 49 71 84 96 117 113 7 327 276 283 288 290 330 41 20 328 339 347 337 334 312 292 291 158 150 143 110 72 81 91 65 58 129 95 343 263 227 267 19 26 325 344 19 29 37 39 42 70 75 40 43 77 69 307 254 223 233 317 316 314 296 294 315 261 257 16 21 7 359 348 341
42 40 39 39 39 38 37 37 38 35 35 43 50 50 47 41 39 57 75 73 87 107 29 331 283 273 325 325 334 16 14 322 356 19 328 311 310 320 331 15 94 168 140 57 30 61 63 44 53 55 314 271 92 63 13 61 13 329 342 9 26 23 13 34 51 34 8 81 84 283 236 178 353 329 319 308 296 321 31 332 276 350 7 360 358 347 337
40 38 37 37 36 35 35 35 36 37 37 44 54 52 45 37 28 40 85 87 90 100 12 350 330 323 17 343 300 324 349 344 357 350 296 307 354 343 315 337 19 303 176 71 34 49 65 32 35 82 301 302 46 80 33 44 38 319 323 359 21 10 356 31 62 42 357 49 297 298 263 158 341 328 319 312 316 14 59 274 286 343 351 350 353 338 329
40 38 36 34 33 32 33 33 36 41 43 44 51 50 42 34 32 55 86 79 78 85 5 354 6 5 346 291 250 287 327 9 353 348 347 346 344 332 312 317 57 355 355 58 58 67 71 10 340 109 91 335 14 94 71 36 36 314 342 16 25 9 348 1 48 27 341 20 268 299 283 144 339 325 322 343 357 358 282 293 322 338 336 337 337 329 334
39 39 36 32 31 30 31 34 38 43 47 46 50 58 50 39 34 48 84 104 104 94 36 18 36 35 15 26 56 344 335 13 17 36 59 302 297 4 29 352 331 359 16 36 39 44 67 14 322 61 78 0 27 101 95 56 38 16 62 79 44 26 350 327 317 292 345 9 12 327 287 302 345 338 341 28 38 306 304 323 325 321 322 329 330 337 353
36 36 34 31 31 30 30 36 41 48 53 48 49 62 61 53 49 54 86 115 112 105 63 45 59 66 60 57 62 51 35 44 22 8 39 274 295 43 69 290 304 12 31 50 46 356 37 47 349 38 55 356 35 83 128 104 20 352 97 107 69 73 101 286 279 200 83 23 323 283 249 317 357 12 32 22 352 317 318 316 309 315 333 336 336 347 352
30 32 32 30 30 31 31 38 45 52 59 53 50 63 69 66 64 67 86 93 87 88 118 110 85 78 74 63 55 49 43 47 41 308 244 294 321 56 95 63 29 34 249 82 64 355 0 47 75 74 59 21 44 76 125 118 31 321 6 64 75 82 154 218 238 242 175 208 239 279 57 20 21 76 106 25 339 312 305 312 320 338 353 355 348 339 339
24 28 30 29 31 31 31 39 46 53 60 55 50 65 81 83 78 80 91 91 87 91 109 109 97 78 60 44 38 28 16 19 69 161 100 343 340 24 58 54 34 322 303 73 86 160 103 93 121 110 91 66 81 79 65 69 109 272 357 36 148 258 322 244 202 293 291 239 243 334 0 357 33 117 121 44 52 125 350 353 351 358 8 2 348 337 338
23 26 27 27 29 30 31 39 48 53 58 51 44 61 84 90 82 80 92 96 98 100 80 64 59 40 2 355 8 8 6 37 84 68 17 9 10 37 24 346 357 2 355 4 6 136 107 98 106 95 89 110 106 93 73 56 115 131 53 355 302 311 4 42 57 331 315 285 337 6 343 337 8 102 43 11 39 32 6 12 13 8 1 350 349 348 341
23 25 26 24 24 27 32 41 52 57 57 49 43 51 71 77 71 73 83 91 107 114 84 34 6 355 337 340 1 11 28 59 74 60 32 28 58 91 338 313 326 302 287 308 347 63 72 56 70 86 100 121 103 97 109 127 145 122 96 325 293 326 28 46 6 322 287 272 299 348 336 320 343 88 21 358 18 16 14 28 19 1 352 350 356 353 339
28 25 24 22 21 24 31 45 60 64 61 55 50 54 65 69 72 81 87 89 92 93 92 75 337 356 24 32 25 30 49 57 57 52 43 31 32 40 349 328 326 261 264 323 42 87 94 78 74 84 89 79 87 107 112 83 80 84 96 196 257 338 18 54 317 307 282 280 316 353 336 303 295 55 10 357 18 12 10 21 10 357 353 354 354 348 338
33 28 26 23 20 21 30 51 73 75 69 65 63 67 70 69 70 77 84 89 86 65 82 134 265 323 56 60 37 34 45 44 37 36 30 15 0 350 341 339 337 309 9 33 48 72 75 67 63 80 111 69 68 92 98 80 91 89 86 230 309 0 9 69 2 319 287 297 345 4 331 293 310 356 354 11 33 17 8 12 3 356 358 356 346 339 341
38 35 31 28 25 25 33 56 87 95 86 76 72 73 72 66 61 59 52 63 100 110 122 157 185 156 97 48 21 23 32 31 29 29 23 20 17 358 352 0 18 52 58 58 60 56 59 73 87 92 140 108 69 65 57 51 61 61 325 272 41 102 234 276 318 272 274 306 354 4 312 289 308 334 352 35 33 19 14 9 359 357 1 357 347 338 340
46 45 42 38 38 41 44 60 98 117 104 86 76 76 73 63 56 57 61 77 97 104 107 109 92 92 82 351 0 13 24 25 25 29 36 43 45 38 33 39 49 71 84 86 93 84 75 110 136 99 348 115 119 114 67 60 58 320 232 218 222 243 239 236 232 251 284 324 9 355 298 281 304 325 357 54 40 27 17 1 359 2 1 355 347 340 336
60 62 56 51 52 54 53 60 85 115 119 119 96 73 67 51 43 50 61 74 92 103 108 103 89 65 279 309 357 9 15 22 29 37 43 44 41 40 47 51 51 60 73 73 82 98 98 50 36 348 324 31 115 132 125 118 167 249 230 208 239 277 266 221 205 234 290 334 351 315 291 280 308 321 5 62 41 24 8 358 2 5 358 350 345 339 335
80 84 72 62 63 63 60 61 69 75 80 94 89 63 66 33 20 36 50 54 72 98 101 94 91 10 332 320 0 6 7 9 22 30 32 32 32 38 51 56 46 43 61 73 64 88 107 49 18 347 335 22 78 122 132 120 161 272 244 200 227 272 263 238 231 217 178 14 341 314 292 291 326 328 5 48 28 13 4 2 4 2 354 347 343 338 334
99 106 91 76 73 73 70 68 70 73 74 74 74 80 102 101 10 33 51 54 73 100 99 86 82 35 347 293 336 2 4 1 14 23 17 13 23 35 49 61 58 49 65 88 75 51 85 106 72 16 344 21 70 93 96 111 174 246 218 190 254 282 248 239 259 139 87 32 8 335 305 318 350 357 23 23 11 5 4 4 1 356 349 343 340 337 334
111 122 112 93 83 82 81 77 74 75 75 74 73 72 71 66 50 61 79 72 67 74 83 90 94 59 319 246 324 358 2 357 5 22 16 355 354 9 23 38 52 45 42 57 91 65 73 115 97 36 340 16 83 86 78 156 205 213 184 192 268 277 250 259 266 124 77 28 23 340 298 307 342 48 31 7 3 2 1 358 355 350 345 340 337 335 334
116 122 122 116 105 96 89 80 77 78 77 74 70 65 62 62 60 61 101 111 77 58 51 68 99 47 339 346 345 358 10 17 353 7 7 338 352 21 12 355 17 37 29 34 78 62 6 37 86 57 325 358 61 74 268 241 216 191 183 247 273 279 283 293 311 105 37 6 347 304 295 313 1 24 10 2 357 354 352 353 353 349 341 334 333 333 332
118 118 123 132 127 114 99 82 77 78 76 74 76 73 70 67 63 61 67 79 72 55 30 41 78 85 11 8 320 327 4 31 347 308 302 327 358 39 89 28 25 28 2 21 70 54 2 40 105 69 328 0 41 298 237 223 201 187 218 288 289 283 286 291 299 333 344 344 322 303 309 18 38 12 359 352 345 344 348 352 351 345 333 326 330 331 330
119 119 121 126 128 126 110 76 64 69 79 87 95 90 82 76 68 65 65 65 65 79 131 52 63 89 70 31 281 318 357 16 319 324 344 340 359 21 69 75 56 0 352 40 58 34 350 78 110 23 343 8 213 239 225 189 179 188 244 286 272 236 226 246 268 313 321 321 308 298 316 66 53 5 347 337 334 339 345 345 343 339 330 325 328 329 327
121 121 123 125 118 103 75 46 48 82 106 106 102 92 86 86 67 56 56 56 55 59 77 89 77 49 149 201 269 327 353 354 328 351 359 333 322 347 50 77 74 292 7 29 19 268 334 34 82 99 258 230 217 235 225 159 152 185 267 282 254 172 140 138 21 346 323 309 297 289 314 59 31 345 332 327 330 339 343 340 340 338 329 326 329 327 324
119 118 119 120 98 69 35 24 64 106 119 109 87 66 39 33 44 38 30 36 39 39 54 76 79 318 26 93 301 338 356 347 356 11 4 249 306 352 40 80 111 132 29 339 275 226 34 23 58 118 259 266 247 230 212 156 140 220 274 261 194 149 131 107 54 10 325 309 302 295 308 331 333 332 331 329 334 343 341 336 336 335 330 328 327 324 323
116 112 86 75 76 85 116 108 100 109 112 29 49 63 19 17 39 32 352 5 23 10 26 58 75 329 57 44 326 337 22 41 17 5 357 333 331 353 15 72 105 72 56 325 286 46 29 334 354 31 295 282 266 219 191 151 125 293 265 180 154 142 129 104 58 343 296 286 275 104 84 7 331 326 330 336 340 340 336 333 335 335 332 329 326 325 327
104 93 66 64 80 95 108 120 132 127 47 22 37 54 32 23 44 65 0 25 27 340 349 55 34 300 59 66 310 310 21 45 44 0 349 300 245 84 67 93 116 70 62 285 281 55 65 289 327 2 287 260 229 183 170 161 250 283 167 152 147 139 127 85 357 318 265 153 117 96 68 35 359 338 337 344 342 336 331 331 334 334 332 331 330 329 330
89 77 74 99 118 107 87 71 50 44 64 46 34 42 39 9 4 32 51 42 14 300 297 56 26 334 352 56 105 274 339 17 99 128 98 307 283 80 67 289 293 78 92 258 268 76 83 28 313 280 253 238 204 168 164 188 284 162 151 154 150 138 116 35 357 306 180 145 116 72 32 18 9 0 353 348 343 337 333 333 334 335 336 336 333 331 333
98 100 102 110 115 108 76 48 35 34 50 54 36 34 27 350 0 16 29 46 332 283 299 43 29 294 283 291 196 219 266 352 41 89 79 320 297 109 109 311 19 64 223 250 307 64 56 338 291 270 253 229 190 171 171 245 277 167 157 158 151 133 86 4 29 156 162 141 103 51 21 13 10 7 356 343 339 338 339 339 339 339 340 339 335 336 339
103 103 105 104 87 54 34 27 26 33 46 48 38 21 355 353 10 6 320 298 327 11 316 316 331 316 300 290 224 227 243 322 29 91 99 322 323 63 56 26 28 66 233 320 54 53 308 230 238 250 242 206 189 192 201 269 302 140 149 157 153 133 36 348 158 159 153 121 77 36 14 6 4 1 347 337 337 342 345 348 348 345 342 340 339 342 345
105 75 74 72 30 20 23 9 8 36 49 38 54 80 11 339 330 306 292 296 323 357 322 327 10 350 310 298 25 310 280 332 65 80 11 328 7 58 59 332 247 252 333 27 46 274 241 232 238 246 225 190 201 212 217 294 336 138 151 159 159 136 23 9 169 169 165 127 38 13 2 356 352 345 336 333 339 344 345 348 351 349 344 342 342 344 348
306 4 38 38 4 0 30 14 358 33 60 55 188 163 162 259 260 235 235 229 180 7 342 27 92 112 267 272 15 47 288 334 26 25 306 14 32 46 210 231 241 46 41 9 324 304 280 265 259 247 216 204 207 200 199 308 296 216 170 166 174 213 321 289 200 190 185 180 4 1 356 349 341 334 329 330 339 346 347 348 348 346 345 343 343 344 348
99 80 76 75 12 344 57 73 8 9 169 204 202 178 175 200 214 216 224 191 129 2 298 222 129 142 277 296 347 41 336 30 31 275 148 83 61 262 234 202 55 45 38 346 302 273 256 253 248 227 208 204 201 200 255 287 258 204 177 180 213 247 271 257 220 211 203 219 349 353 351 344 334 325 323 327 339 349 351 350 348 346 346 345 342 343 348
89 61 81 95 54 0 41 124 229 226 178 189 202 197 192 206 219 223 214 157 164 196 251 227 160 195 252 281 318 301 334 58 66 278 339 102 160 281 351 49 50 214 168 252 259 249 244 252 246 213 198 194 197 221 266 257 207 191 191 206 227 234 234 238 229 219 220 269 330 341 341 334 324 320 323 329 338 346 349 349 349 352 353 349 346 347 350
105 65 74 106 151 290 16 157 193 166 115 149 237 225 190 167 258 257 219 168 145 128 101 76 97 235 283 317 5 262 295 31 95 258 1 96 124 327 11 15 299 261 205 205 224 234 238 238 220 199 190 193 200 221 253 242 207 198 202 222 239 236 233 246 260 245 241 274 320 333 331 323 316 315 319 323 329 337 344 347 351 357 358 354 351 352 352
81 83 76 94 137 190 202 127 114 240 287 307 306 259 162 183 252 249 212 152 123 127 158 152 129 141 262 306 63 110 283 288 190 303 5 35 86 202 138 250 285 284 253 220 216 227 235 219 190 179 192 206 207 225 249 239 214 207 216 238 249 241 236 256 274 258 248 276 318 326 322 314 306 306 312 318 325 333 339 347 355 359 358 355 353 351 351
59 69 81 89 96 140 203 123 112 289 297 307 298 238 193 204 246 242 188 149 124 82 84 96 98 128 244 0 44 21 280 247 147 104 0 235 194 168 161 226 233 236 233 228 222 222 218 187 161 176 213 227 226 240 247 229 215 217 230 246 248 242 248 273 281 262 253 284 315 320 313 301 293 301 312 319 324 327 333 346 356 355 352 353 354 352 350
44 59 79 137 132 154 167 157 168 228 254 253 232 214 191 184 215 209 174 149 109 66 62 151 146 59 44 27 16 267 257 240 97 102 245 233 183 143 178 233 235 226 225 240 239 216 195 174 164 183 213 228 232 240 240 227 222 230 241 245 243 246 265 286 282 260 257 287 311 312 301 289 291 305 313 318 322 326 332 344 352 351 348 349 353 353 348
60 77 82 333 79 138 145 136 144 187 204 216 218 203 180 185 197 176 154 135 110 91 174 183 99 76 56 261 229 159 42 15 5 264 241 230 193 172 192 220 230 215 207 228 235 214 195 192 191 194 201 214 227 232 229 224 226 235 241 242 243 252 273 286 278 260 260 284 303 305 293 283 289 302 313 321 330 335 337 339 342 342 341 344 348 349 346